Weather in Lillehammer

Norway     61°07′14″N   10°27′33″E
temp.,
°C
wind,
m/s
gust,
m/s
humid.,
%
clouds,
%
prec.,
mm/h
press.,
hPa
HPBL,
m
11 april, sun
sun1123:00−5nw118724 0.0 101432
02:00−6nw128810 0.0 101638
05:00−9nw24925 0.0 101866
08:00−6nw23760 0.0 1019124
11:000nnw11610 0.0 1019499
14:00+3ne1248100 0.0 10191333
17:00+3ne3556100 0.1 10181198
20:00+1ene4965100 0.4 1018543
12 april, mon
mon1223:00−1n2796100 0.6 1019495
02:00−2n2497100 2.4 1018326
05:00−1n31086100 0.9 1017938
08:00−2nne51382100 1.2 10151245
11:00−1n51280100 0.9 10151096
14:00+1n61175100 1.5 10141344
17:00+1n61073100 0.2 10151265
20:00−1n51274100 0.2 1016979
13 april, tue
tue1323:00−1nnw41175100 0.0 1017876
02:00−1nnw41171100 0.0 1017810
05:00−2nw3875100 0.0 1018358
08:00−2nw3974100 0.0 1019939
11:00+1nw4854100 0.0 10201513
14:00+2nnw4845100 0.0 10212186
17:00+3nnw364998 0.1 10211735
20:00−1nnw11809 0.3 102410
14 april, wed
wed1423:00−4nw11895 0.0 102721
02:00−5nw11887 0.0 102939
05:00−5nw24845 0.0 1030113
08:00−4nw24690 0.0 1032215
11:00+2wnw23554 0.0 1032523
14:00+5w224627 0.0 1031830
17:00+5wnw224758 0.0 1031815
20:000nw11865 0.0 103214
15 april, thu
thu1523:00−3nw22885 0.0 103540
02:00−3nw23875 0.0 103649
05:00−3nw23855 0.0 103778
08:00−1nw24725 0.0 1038196
11:00+3nw23575 0.0 1038514
14:00+6nnw22505 0.0 1037847
17:00+6n12513 0.0 1037886
20:00+2n11805 0.0 103811